• In United Kingdom
  • List of Countries
  • For 7 days
  • Water Temperature
  • Satellite Maps
  • Weather Map
  • Weather Widgets
  • user-avatar
    Login

    Hourly Weather Igls

    Today, 19 October, Thursday

    Time Temperature Precipitation Wind Pressure Humidity
    00:00 +9°C° 0 mm 2 mps 684 mmHg 59%
    01:00 +9°C° 0 mm 2 mps 684 mmHg 53%
    02:00 +9°C° 0 mm 2 mps 684 mmHg 53%
    03:00 +8°C° 0 mm 2 mps 684 mmHg 52%
    04:00 +8°C° 0 mm 2 mps 684 mmHg 52%
    05:00 +8°C° 0 mm 2 mps 684 mmHg 51%
    06:00 +9°C° 0 mm 1 mps 684 mmHg 50%
    07:00 +9°C° 0 mm 1 mps 684 mmHg 49%
    08:00 +12°C° 0 mm 1 mps 684 mmHg 44%
    09:00 +15°C° 0 mm 1 mps 685 mmHg 39%
    10:00 +19°C° 0 mm 1 mps 685 mmHg 34%
    11:00 +20°C° 0 mm 1 mps 685 mmHg 33%
    12:00 +20°C° 0 mm 1 mps 685 mmHg 31%
    13:00 +21°C° 0 mm 1 mps 685 mmHg 30%
    14:00 +20°C° 0 mm 1 mps 685 mmHg 36%
    15:00 +20°C° 0 mm 1 mps 685 mmHg 42%
    16:00 +19°C° 0 mm 1 mps 684 mmHg 48%
    17:00 +16°C° 0 mm 1 mps 684 mmHg 52%
    18:00 +13°C° 0 mm 1 mps 684 mmHg 56%
    19:00 +10°C° 0 mm 2 mps 684 mmHg 60%
    20:00 +10°C° 0 mm 2 mps 684 mmHg 59%
    21:00 +10°C° 0 mm 2 mps 684 mmHg 58%
    22:00 +9°C° 0 mm 2 mps 684 mmHg 57%
    23:00 +9°C° 0 mm 2 mps 684 mmHg 58%

    Tomorrow, 20 October, Friday

    Time Temperature Precipitation Wind Pressure Humidity
    00:00 +9°C° 0 mm 2 mps 684 mmHg 60%
    01:00 +9°C° 0 mm 2 mps 684 mmHg 62%
    02:00 +9°C° 0 mm 2 mps 684 mmHg 65%
    03:00 +8°C° 0 mm 2 mps 684 mmHg 67%
    04:00 +8°C° 0 mm 2 mps 684 mmHg 70%
    05:00 +9°C° 0 mm 1 mps 684 mmHg 71%
    06:00 +9°C° 0 mm 1 mps 685 mmHg 72%
    07:00 +9°C° 0 mm 1 mps 685 mmHg 73%
    08:00 +12°C° 0 mm 1 mps 686 mmHg 65%
    09:00 +15°C° 0 mm 1 mps 686 mmHg 56%
    10:00 +17°C° 0 mm 0 mps 687 mmHg 48%
    11:00 +17°C° 0 mm 0 mps 687 mmHg 46%
    12:00 +20°C° 0 mm 1 mps 687 mmHg 45%
    13:00 +20°C° 0 mm 1 mps 687 mmHg 43%
    14:00 +20°C° 0 mm 1 mps 687 mmHg 48%
    15:00 +19°C° 0 mm 1 mps 687 mmHg 53%
    16:00 +18°C° 0 mm 1 mps 687 mmHg 59%
    17:00 +15°C° 0 mm 1 mps 687 mmHg 67%
    18:00 +13°C° 0 mm 1 mps 687 mmHg 76%
    19:00 +10°C° 0 mm 1 mps 686 mmHg 85%
    20:00 +10°C° 0 mm 1 mps 687 mmHg 84%
    21:00 +10°C° 0 mm 1 mps 687 mmHg 83%
    22:00 +10°C° 0 mm 1 mps 687 mmHg 81%
    23:00 +10°C° 0 mm 1 mps 687 mmHg 79%

    Day after tomorrow, 21 October, Saturday

    Time Temperature Precipitation Wind Pressure Humidity
    00:00 +10°C° 0 mm 1 mps 687 mmHg 76%
    01:00 +10°C° 0 mm 1 mps 687 mmHg 74%
    02:00 +10°C° 0 mm 1 mps 687 mmHg 72%
    03:00 +10°C° 0 mm 1 mps 686 mmHg 70%
    04:00 +10°C° 0 mm 1 mps 686 mmHg 68%
    05:00 +10°C° 0 mm 1 mps 686 mmHg 67%
    06:00 +10°C° 0 mm 1 mps 686 mmHg 65%
    07:00 +11°C° 0 mm 1 mps 686 mmHg 64%
    08:00 +13°C° 0 mm 1 mps 687 mmHg 58%
    09:00 +15°C° 0 mm 0 mps 687 mmHg 51%
    10:00 +17°C° 0 mm 0 mps 688 mmHg 45%
    11:00 +18°C° 0 mm 0 mps 688 mmHg 43%
    12:00 +20°C° 0 mm 1 mps 687 mmHg 42%
    13:00 +21°C° 0 mm 1 mps 687 mmHg 40%
    14:00 +20°C° 0 mm 1 mps 687 mmHg 46%
    15:00 +20°C° 0 mm 1 mps 686 mmHg 53%
    16:00 +19°C° 0 mm 1 mps 686 mmHg 59%
    17:00 +16°C° 0 mm 1 mps 686 mmHg 66%
    18:00 +13°C° 0 mm 1 mps 685 mmHg 73%
    19:00 +10°C° 0 mm 0 mps 685 mmHg 81%
    20:00 +10°C° 0 mm 0 mps 685 mmHg 81%
    21:00 +10°C° 0 mm 0 mps 685 mmHg 82%
    22:00 +10°C° 0 mm 0 mps 686 mmHg 82%
    23:00 +11°C° 0.2 mm 1 mps 686 mmHg 84%

    22 October, Sunday

    Time Temperature Precipitation Wind Pressure Humidity
    00:00 +10°C° 0.2 mm 1 mps 686 mmHg 87%
    01:00 +10°C° 0.2 mm 1 mps 686 mmHg 89%
    02:00 +10°C° 0.6 mm 1 mps 685 mmHg 91%
    03:00 +10°C° 0.6 mm 1 mps 685 mmHg 93%
    04:00 +10°C° 0.6 mm 1 mps 685 mmHg 94%
    05:00 +9°C° 1.3 mm 1 mps 685 mmHg 95%
    06:00 +8°C° 1.3 mm 2 mps 685 mmHg 95%
    07:00 +8°C° 1.3 mm 2 mps 684 mmHg 96%
    08:00 +8°C° 1.9 mm 2 mps 684 mmHg 95%
    09:00 +8°C° 1.9 mm 2 mps 684 mmHg 95%
    10:00 +8°C° 1.9 mm 2 mps 684 mmHg 94%
    11:00 +7°C° 1.6 mm 2 mps 684 mmHg 94%
    12:00 +7°C° 1.6 mm 2 mps 684 mmHg 93%
    13:00 +7°C° 1.6 mm 3 mps 684 mmHg 93%
    14:00 +5°C° 1.2 mm 3 mps 684 mmHg 93%
    15:00 +5°C° 1.2 mm 3 mps 684 mmHg 93%
    16:00 +5°C° 1.2 mm 3 mps 684 mmHg 93%
    17:00 +4°C° 0.4 mm 3 mps 684 mmHg 93%
    18:00 +3°C° 0.4 mm 3 mps 684 mmHg 94%
    19:00 +3°C° 0.4 mm 3 mps 684 mmHg 94%
    20:00 +3°C° 0.2 mm 3 mps 685 mmHg 94%
    21:00 +3°C° 0.2 mm 2 mps 685 mmHg 93%
    22:00 +3°C° 0.2 mm 2 mps 685 mmHg 93%
    23:00 +3°C° 0.3 mm 2 mps 685 mmHg 93%

    23 October, Monday

    Time Temperature Precipitation Wind Pressure Humidity
    00:00 +3°C° 0.3 mm 2 mps 685 mmHg 93%
    01:00 +3°C° 0.3 mm 2 mps 685 mmHg 93%
    02:00 +3°C° 0.4 mm 2 mps 685 mmHg 94%
    03:00 +3°C° 0.4 mm 2 mps 685 mmHg 94%
    04:00 +3°C° 0.4 mm 2 mps 685 mmHg 95%
    05:00 +3°C° 0.6 mm 2 mps 686 mmHg 95%
    06:00 +3°C° 0.6 mm 2 mps 686 mmHg 95%
    07:00 +3°C° 0.6 mm 2 mps 686 mmHg 95%
    08:00 +4°C° 0.6 mm 2 mps 686 mmHg 94%
    09:00 +3°C° 0.6 mm 3 mps 687 mmHg 93%
    10:00 +4°C° 0.6 mm 3 mps 687 mmHg 92%
    11:00 +4°C° 0.5 mm 3 mps 687 mmHg 92%
    12:00 +4°C° 0.5 mm 3 mps 687 mmHg 92%
    13:00 +5°C° 0.5 mm 3 mps 687 mmHg 91%
    14:00 +5°C° 0.5 mm 3 mps 687 mmHg 92%
    15:00 +5°C° 0.5 mm 3 mps 687 mmHg 92%
    16:00 +5°C° 0.5 mm 2 mps 688 mmHg 93%
    17:00 +5°C° 0.3 mm 2 mps 688 mmHg 94%
    18:00 +4°C° 0.3 mm 2 mps 689 mmHg 95%
    19:00 +4°C° 0.3 mm 2 mps 689 mmHg 96%
    20:00 +3°C° 0.3 mm 2 mps 689 mmHg 96%
    21:00 +3°C° 0.3 mm 2 mps 690 mmHg 96%
    22:00 +3°C° 0.3 mm 2 mps 690 mmHg 96%
    23:00 +3°C° 0.1 mm 2 mps 690 mmHg 95%

    24 October, Tuesday

    Time Temperature Precipitation Wind Pressure Humidity
    00:00 +2°C° 0.1 mm 2 mps 690 mmHg 95%
    01:00 +2°C° 0.1 mm 2 mps 690 mmHg 95%
    02:00 +1°C° 0 mm 2 mps 690 mmHg 94%
    03:00 +1°C° 0 mm 2 mps 690 mmHg 93%
    04:00 +1°C° 0 mm 2 mps 690 mmHg 92%
    05:00 +1°C° 0 mm 2 mps 690 mmHg 91%
    06:00 -1°C° 0 mm 2 mps 690 mmHg 90%
    07:00 -1°C° 0 mm 2 mps 690 mmHg 88%
    08:00 +3°C° 0 mm 2 mps 691 mmHg 87%
    09:00 +5°C° 0 mm 2 mps 691 mmHg 85%
    10:00 +7°C° 0 mm 2 mps 691 mmHg 83%
    11:00 +8°C° 0 mm 2 mps 691 mmHg 83%
    12:00 +9°C° 0 mm 2 mps 691 mmHg 84%
    13:00 +9°C° 0 mm 2 mps 690 mmHg 84%
    14:00 +9°C° 0 mm 2 mps 690 mmHg 85%
    15:00 +8°C° 0 mm 2 mps 690 mmHg 86%
    16:00 +8°C° 0 mm 2 mps 690 mmHg 87%
    17:00 +7°C° 0 mm 2 mps 690 mmHg 88%
    18:00 +6°C° 0 mm 2 mps 690 mmHg 88%
    19:00 +5°C° 0 mm 2 mps 691 mmHg 88%
    20:00 +5°C° 0 mm 2 mps 691 mmHg 87%
    21:00 +4°C° 0 mm 2 mps 691 mmHg 86%
    22:00 +4°C° 0 mm 2 mps 691 mmHg 86%
    23:00 +4°C° 0 mm 2 mps 691 mmHg 86%
    Show more